Ithaca, NY

4:44 AM EDT on August 25, 2016 (GMT -0400)
Tompkins County

Weather History for KITH - March, 2014

Change the Weather History Date:

Wednesday, March 26, 2014

  Actual Average Record
Temperature  
Mean Temperature 20 °F -  
Max Temperature 25 °F 46 °F 75 °F (1939)
Min Temperature 15 °F 26 °F -4 °F (1960)
Degree Days  
Heating Degree Days 44    
Moisture  
Dew Point 12 °F    
Average Humidity 74    
Maximum Humidity 93    
Minimum Humidity 53    
Precipitation  
Precipitation 0.00 in - - ()
Sea Level Pressure  
Sea Level Pressure 30.07 in    
Wind  
Wind Speed 13 mph (NW)    
Max Wind Speed 23 mph    
Max Gust Speed 30 mph    
Visibility 6 miles    
Events Snow    
Averages and records for this station are not official NWS values.
T = Trace of Precipitation, MM = Missing Value Source: NWS Daily Summary

Daily Weather History Graph

Daily Weather History Graph

Search for Another Location

Airport or City:

Trip Planner

Search our weather history database for the weather conditions in past years. The results will help you decide how hot, cold, wet, or windy it might be!

Date:

Astronomy

Mar. 26, 2014 Rise Set
Actual Time 6:58 AM EDT 7:24 PM EDT
Civil Twilight 6:30 AM EDT 7:53 PM EDT
Nautical Twilight 5:57 AM EDT 8:26 PM EDT
Astronomical Twilight 5:23 AM EDT 9:00 PM EDT
Moon 4:10 AM EDT (3/26) 2:56 PM EDT (3/26)
Length of Visible Light 13h 22m
Length of Day
12h 26m
Waning Crescent, 22% of the Moon is Illuminated
Mar 26
Waning Crescent
Mar 30
New
Apr 7
First Quarter
Apr 15
Full
Apr 22
Last Quarter

Hourly Weather History & Observations

Time (EDT) Temp. Windchill Dew Point Humidity Pressure Visibility Wind Dir Wind Speed Gust Speed Precip Events Conditions
12:11 AM 26.6 °F 17.5 °F 21.2 °F 80% 29.91 in 10.0 mi North 9.2 mph - 0.00 in Snow Light Snow
12:56 AM 25.2 °F 16.5 °F 21.0 °F 84% 29.95 in 2.5 mi North 8.1 mph - 0.00 in Snow Light Snow
1:29 AM 24.8 °F 15.3 °F 21.2 °F 86% 29.91 in 1.8 mi NNW 9.2 mph - 0.00 in Snow Light Snow
1:38 AM 24.8 °F 12.4 °F 21.2 °F 86% 29.91 in 1.2 mi NNW 15.0 mph 19.6 mph 0.00 in Snow Light Snow
1:40 AM 24.8 °F 12.4 °F 21.2 °F 86% 29.91 in 1.0 mi NNW 15.0 mph 19.6 mph 0.00 in Snow Light Snow
1:48 AM 23.0 °F 11.7 °F 21.2 °F 93% 29.91 in 1.5 mi NNW 11.5 mph - 0.00 in Snow Light Snow
1:56 AM 23.0 °F 11.1 °F 20.1 °F 89% 29.96 in 1.5 mi NNW 12.7 mph - 0.00 in Snow Light Snow
2:06 AM 23.0 °F 11.1 °F 19.4 °F 86% 29.92 in 1.2 mi NNW 12.7 mph - 0.00 in Snow Light Snow
2:17 AM 21.2 °F 8.9 °F 19.4 °F 93% 29.93 in 2.0 mi NNW 12.7 mph - 0.00 in Snow Light Snow
2:24 AM 21.2 °F 6.8 °F 19.4 °F 93% 29.93 in 2.5 mi NNW 17.3 mph - 0.00 in Snow Light Snow
2:33 AM 21.2 °F 8.9 °F 17.6 °F 86% 29.93 in 4.0 mi NNW 12.7 mph - 0.00 in Snow Light Snow
2:56 AM 21.0 °F 9.3 °F 18.1 °F 89% 29.97 in 4.0 mi NNW 11.5 mph - 0.00 in Snow Light Snow
3:56 AM 21.0 °F 6.6 °F 13.1 °F 71% 29.97 in 10.0 mi NNW 17.3 mph 21.9 mph 0.00 in   Overcast
4:56 AM 20.1 °F 7.5 °F 13.1 °F 74% 30.00 in 10.0 mi NNW 12.7 mph 18.4 mph 0.00 in Snow Light Snow
5:20 AM 19.4 °F 6.0 °F 14.0 °F 80% 29.96 in 10.0 mi NNW 13.8 mph - 0.00 in Snow Light Snow
5:56 AM 18.1 °F 6.3 °F 9.1 °F 68% 30.02 in 10.0 mi NNW 10.4 mph - 0.00 in   Partly Cloudy
6:15 AM 17.6 °F 4.3 °F 8.6 °F 68% 29.98 in 10.0 mi North 12.7 mph 19.6 mph N/A   Mostly Cloudy
6:23 AM 17.6 °F 7.3 °F 8.6 °F 68% 29.98 in 10.0 mi NNW 8.1 mph - 0.00 in   Mostly Cloudy
6:56 AM 17.1 °F 5.0 °F 10.0 °F 74% 30.04 in 7.0 mi NW 10.4 mph - 0.00 in Snow Light Snow Showers
7:56 AM 16.2 °F 0.8 °F 8.1 °F 70% 30.07 in 10.0 mi NW 16.1 mph 21.9 mph 0.00 in   Mostly Cloudy
8:56 AM 17.1 °F 2.5 °F 8.1 °F 68% 30.10 in 7.0 mi NW 15.0 mph - 0.00 in Snow Light Snow Showers
9:56 AM 17.1 °F 0.1 °F 9.1 °F 71% 30.12 in 7.0 mi NW 20.7 mph - 0.00 in Snow Light Snow Showers
10:32 AM 17.6 °F 0.5 °F 10.4 °F 73% 30.07 in 1.5 mi NW 21.9 mph 27.6 mph 0.00 in Snow Light Snow
10:56 AM 19.0 °F 4.5 °F 13.1 °F 78% 30.12 in 0.8 mi NW 16.1 mph 23.0 mph 0.00 in Snow Light Snow
11:06 AM 17.6 °F 1.7 °F 12.2 °F 79% 30.08 in 0.2 mi NW 18.4 mph 26.5 mph 0.00 in Snow Heavy Snow
11:16 AM 17.6 °F 2.2 °F 12.2 °F 79% 30.08 in 1.0 mi NNW 17.3 mph - 0.00 in Snow Light Snow
11:56 AM 18.1 °F 3.9 °F 10.0 °F 71% 30.14 in 3.0 mi NNW 15.0 mph 27.6 mph 0.00 in Snow Blowing Snow
12:56 PM 19.0 °F 4.0 °F 7.2 °F 60% 30.14 in 10.0 mi NNW 17.3 mph 28.8 mph N/A Snow Blowing Snow
1:56 PM 21.0 °F 5.0 °F 8.1 °F 57% 30.14 in 10.0 mi NW 21.9 mph 28.8 mph N/A   Overcast
2:56 PM 21.0 °F 4.6 °F 6.1 °F 53% 30.14 in 10.0 mi NW 23.0 mph 29.9 mph N/A   Overcast
3:56 PM 22.1 °F 8.0 °F 9.1 °F 58% 30.14 in 7.0 mi NW 17.3 mph 29.9 mph 0.00 in Snow Light Snow
4:56 PM 20.1 °F 4.2 °F 9.1 °F 62% 30.17 in 10.0 mi NW 20.7 mph 28.8 mph 0.00 in   Mostly Cloudy
5:56 PM 20.1 °F 3.4 °F 10.0 °F 65% 30.19 in 10.0 mi WNW 23.0 mph 26.5 mph 0.00 in   Overcast
6:56 PM 19.0 °F 3.6 °F 5.0 °F 54% 30.20 in 10.0 mi NW 18.4 mph 26.5 mph N/A   Mostly Cloudy
7:56 PM 19.0 °F 4.0 °F 9.1 °F 65% 30.22 in 10.0 mi WNW 17.3 mph 27.6 mph N/A   Overcast
8:56 PM 19.0 °F 4.0 °F 8.1 °F 62% 30.26 in 10.0 mi WNW 17.3 mph - N/A   Overcast
9:56 PM 18.1 °F 3.4 °F 9.1 °F 68% 30.28 in 10.0 mi NW 16.1 mph - N/A   Mostly Cloudy
10:03 PM 17.6 °F 5.0 °F 8.6 °F 68% 30.22 in 10.0 mi NW 11.5 mph - N/A   Overcast
10:56 PM 17.1 °F 3.0 °F 8.1 °F 68% 30.29 in 10.0 mi West 13.8 mph - N/A   Overcast
11:22 PM 15.8 °F 4.2 °F 6.8 °F 68% 30.23 in 10.0 mi WNW 9.2 mph - N/A   Mostly Cloudy
11:56 PM 16.2 °F 3.2 °F 7.2 °F 68% 30.30 in 10.0 mi WNW 11.5 mph - N/A   Mostly Cloudy